Location: Newark
(54.7700°N, 18.4827°E)
Time: 19:59:55
(UTC+00:00)

X-37B - Visible Passes

Search period start: 11 August 2020 00:00
Search period end: 21 August 2020 00:00
Orbit: 385 x 388 km, 45.0° (Epoch: 09 August)

Date Brightness Start Highest point End Pass type
(mag) Time Alt. Az. Time Alt. Az. Time Alt. Az.
11 Aug 2.6 19:35:11 10° SSW 19:37:00 14° S 19:38:08 12° SSE visible
12 Aug 2.7 20:12:50 10° SW 20:14:17 13° SSW 20:14:17 13° SSW visible
13 Aug 2.7 19:14:21 10° SW 19:16:11 15° S 19:18:02 10° SSE visible
14 Aug 2.9 19:52:30 10° SW 19:53:40 12° SSW 19:54:13 11° S visible
